TimeMST,TemperatureF,Dew PointF,Humidity,Sea Level PressureIn,VisibilityMPH,Wind Direction,Wind SpeedMPH,Gust SpeedMPH,PrecipitationIn,Events,Conditions,WindDirDegrees,DateUTC
12:53 AM,30.0,21.0,69,30.21,10.0,NE,5.8,-,N/A,,Clear,50,2012-12-05 07:53:00
1:53 AM,28.0,19.9,72,30.21,10.0,ENE,5.8,-,N/A,,Clear,60,2012-12-05 08:53:00
2:53 AM,27.0,19.0,72,30.20,10.0,ENE,5.8,-,N/A,,Clear,60,2012-12-05 09:53:00
3:53 AM,25.0,17.1,72,30.17,10.0,ENE,11.5,-,N/A,,Clear,60,2012-12-05 10:53:00
4:53 AM,30.0,19.0,64,30.19,10.0,Calm,Calm,-,N/A,,Clear,0,2012-12-05 11:53:00
5:53 AM,30.0,19.0,64,30.23,10.0,NW,3.5,-,N/A,,Clear,320,2012-12-05 12:53:00
7:53 AM,30.0,17.1,59,30.22,10.0,NE,9.2,-,N/A,,Clear,50,2012-12-05 14:53:00
8:53 AM,37.9,18.0,45,30.18,10.0,ENE,5.8,-,N/A,,Clear,60,2012-12-05 15:53:00
9:53 AM,46.9,19.0,33,30.15,10.0,NE,3.5,-,N/A,,Clear,50,2012-12-05 16:53:00
10:53 AM,55.9,19.0,24,30.07,10.0,NE,3.5,-,N/A,,Clear,50,2012-12-05 17:53:00
11:53 AM,59.0,17.1,20,30.02,10.0,South,3.5,-,N/A,,Clear,170,2012-12-05 18:53:00
12:53 PM,61.0,19.0,20,29.95,10.0,SSW,4.6,-,N/A,,Clear,210,2012-12-05 19:53:00
1:53 PM,64.0,19.9,18,29.91,10.0,SSW,8.1,-,N/A,,Clear,210,2012-12-05 20:53:00
2:53 PM,64.0,21.0,19,29.89,10.0,South,9.2,-,N/A,,Clear,180,2012-12-05 21:53:00
3:53 PM,61.0,21.0,21,29.89,10.0,SSE,4.6,-,N/A,,Clear,150,2012-12-05 22:53:00
4:53 PM,57.9,19.0,22,29.89,10.0,WSW,12.7,-,N/A,,Clear,240,2012-12-05 23:53:00
5:53 PM,55.9,16.0,21,29.91,10.0,West,11.5,-,N/A,,Clear,270,2012-12-06 00:53:00
6:53 PM,57.0,15.1,19,29.88,10.0,WSW,16.1,23.0,N/A,,Clear,250,2012-12-06 01:53:00
7:53 PM,55.0,14.0,20,29.86,10.0,West,20.7,-,N/A,,Clear,260,2012-12-06 02:53:00
8:53 PM,54.0,15.1,22,29.84,10.0,Variable,4.6,16.1,N/A,,Clear,0,2012-12-06 03:53:00
9:53 PM,48.0,16.0,28,29.81,10.0,North,3.5,-,N/A,,Clear,10,2012-12-06 04:53:00
10:53 PM,45.0,15.1,30,29.79,10.0,NNE,6.9,-,N/A,,Clear,30,2012-12-06 05:53:00
11:53 PM,35.1,14.0,42,29.81,10.0,East,5.8,-,N/A,,Clear,80,2012-12-06 06:53:00